Weather in Mistolovo

Russia / Saint-Petersburg and Leningrad Oblast     60°07′05″N   30°24′19″E
temp.,
°C
wind,
m/s
gust,
m/s
humid.,
%
clouds,
%
prec.,
mm/h
press.,
hPa
HPBL,
m
10 april, sat
sat1000:00+3ssw71789100 0.1 10071391
03:00+3ssw71693100 0.1 10071441
06:00+3ssw61488100 0.1 10081284
09:00+5ssw71470100 0.1 10081603
12:00+7ssw71469100 0.1 10081569
15:00+5sw61282100 1.3 10091241
18:00+5wsw5115794 1.1 10101727
21:00+3wsw4116627 1.1 1013739
11 april, sun
sun1100:00+1sw411713 0.0 1016570
03:000sw410815 0.0 1019327
06:000ssw311772 0.0 1020304
09:00+4sw411590 0.0 1022557
12:00+8wsw58435 0.0 10251360
15:00+9w36375 0.0 10261965
18:00+9wnw124285 0.0 1027405
21:00+5se2260100 0.0 102828
12 april, mon
mon1200:00+4se2659100 0.0 1029121
03:00+4se276279 0.0 1028153
06:00+3se4118580 0.0 1026266
09:00+8sse4138073 0.0 1025432
12:00+14s5105366 0.0 1024959
15:00+17s594268 0.0 10231556
18:00+15s4947100 0.0 10221193
21:00+10sse29715 0.0 1021174
13 april, tue
tue1300:00+8sse26795 0.0 1021119
03:00+6sse2687100 0.0 1019115
06:00+5sse2689100 0.0 1018116
09:00+9s3871100 0.0 1018286
12:00+13ssw465291 0.0 1018850
15:00+15wsw364595 0.0 10171692
18:00+11wnw346995 0.0 1018279
21:00+7wnw238777 0.0 101884
14 april, wed
wed1400:00+5w119391 0.0 101835
03:00+5w2491100 0.0 1017109
06:00+4wnw258696 0.0 1017192
09:00+4wnw3579100 0.0 1017308
12:00+5wnw3477100 0.0 1018505
15:00+4wnw3572100 0.0 1018456
18:00+3w2681100 0.1 1019241
21:00+2w258098 0.1 1019195